Vertical_Velocity
-4 -2 0 3 2 2 -1 -0 -2 0 -2 -1 2 2 -0 1 2 1 2 3 1 1 -0 -1 -2 1 -1 -2 1 0 -0 -2 -1 2 -1 -1 0 -1 -1 2 -1 0 -1
-4 -0 0 -1 2 4 1 1 1 -2 2 1 -0 -0 2 2 2 2 3 3 2 1 1 -0 1 -3 2 0 -0 -2 -0 -1 -1 -1 1 2 -0 -2 1 -1 0 -1 1
-1 -3 -0 3 4 1 1 3 4 1 -1 -0 1 1 1 2 1 2 0 2 2 3 2 2 -0 -1 -0 0 -0 -3 -2 -1 -0 0 0 2 1 0 -0 -0 -1 -1 0
2 1 -0 1 3 3 5 2 1 -1 3 3 1 1 3 1 3 0 1 2 3 0 1 1 2 2 1 1 1 -1 0 -0 2 1 0 2 -0 1 3 -0 3 1 -0
3 2 1 2 6 7 5 3 3 1 2 4 4 4 3 2 2 4 3 4 5 4 1 3 2 1 0 2 -1 2 -4 -0 2 1 1 2 -1 -1 -0 1 1 0 -1
-2 2 2 -0 2 3 2 1 2 3 1 -2 2 2 2 2 3 2 1 1 3 3 3 4 3 1 1 3 1 3 0 -4 0 1 2 2 1 1 2 0 1 -2 -0
-5 0 4 4 1 -1 1 10 5 -17 8 1 -4 -1 1 1 2 2 3 0 1 -2 1 2 3 -1 6 -1 3 -0 3 -3 1 0 1 2 -0 1 1 1 0 -0 -1
-2 -2 1 4 2 1 1 8 4 8 6 4 1 -3 2 4 2 -0 0 1 0 -7 -2 2 0 5 5 -2 3 4 3 -3 1 1 1 1 -1 0 -0 -0 1 1 0
3 1 -2 -0 4 3 3 4 2 4 3 0 1 1 3 -0 -3 -4 3 1 5 -1 -2 2 -2 2 0 -5 -7 3 4 -0 -1 0 1 1 2 1 -0 -1 -0 -1 0
2 6 1 -8 -7 -0 4 8 1 1 4 5 3 1 -0 4 5 0 -1 3 5 -1 3 6 -1 3 2 -4 0 5 4 0 -2 -0 -0 0 0 1 1 -1 -1 -2 1
-5 1 4 6 0 -6 -4 -2 2 1 -1 -0 1 4 2 -15 -6 3 0 2 2 -0 2 3 -0 -7 -12 -30 2 5 2 1 -0 -1 -0 -1 -0 -0 -1 -3 0 -0 -0
-6 -6 -0 1 6 4 1 -3 -3 3 3 -2 2 6 -0 -0 -1 -1 -2 0 -0 3 3 -1 -20 -3 1 -2 5 1 1 1 2 2 -1 -1 -2 -1 -3 -1 -2 -3 -0
6 -4 -6 1 2 1 4 6 0 -2 3 3 1 -2 2 2 1 3 4 1 1 3 -3 -1 -5 1 0 1 3 -2 2 -0 1 1 -0 -0 -3 -4 -3 -1 1 0 2
2 5 -0 -10 2 6 -1 -2 7 5 -9 5 8 2 0 -0 -1 3 -1 -0 5 0 2 -2 -3 1 -0 2 0 0 1 -1 -1 -1 -1 -2 -1 -2 -2 -1 -2 -1 1
3 -2 -2 6 -10 -9 5 8 -1 2 9 -0 -5 6 6 2 3 1 6 3 4 -0 6 3 4 2 0 1 1 -1 0 -2 -1 -2 -1 -1 -0 -1 0 -0 -2 -0 -1
8 1 6 3 4 -4 2 -2 5 6 2 9 9 -2 7 3 5 2 2 4 2 1 1 1 0 2 3 -1 1 1 0 -1 -1 -3 -3 -3 -2 -1 1 0 -2 -5 -2
8 -3 -2 -3 8 3 4 6 1 2 -1 8 3 8 7 3 5 4 3 1 -1 -0 -0 2 2 1 -2 -0 0 1 1 -0 -1 -2 -3 -2 -1 0 0 -2 -1 -1 -3
1 7 -5 1 1 0 -1 -3 3 -2 -0 -2 4 1 4 5 4 5 4 0 -2 1 -1 2 3 -2 -2 2 -0 -1 -1 -1 -1 -3 -4 -2 -1 -3 -3 -3 -2 -1 -2
2 6 -2 -6 -0 1 3 1 -5 2 2 -2 3 -1 -2 6 8 4 4 6 2 -0 2 -1 0 0 3 1 0 -2 -1 -2 -2 -2 -2 -3 -3 -1 -1 -2 -2 -1 -2
-7 9 7 -2 3 4 2 -0 -2 -3 1 2 -1 4 -1 0 -1 6 5 3 4 0 -3 -27 5 -0 0 -3 -2 -0 -1 -3 -3 0 -1 -2 -1 -2 -2 -0 -1 0 1
-2 -2 4 7 2 3 3 2 2 1 1 3 2 0 -4 -1 2 2 4 6 -4 3 2 2 5 2 -0 -1 -2 -2 -2 -3 -1 1 -2 -0 -2 -1 -1 -2 -2 -1 -2
4 -1 -5 2 4 2 4 7 3 -1 -0 -2 -1 8 1 -4 -2 -4 4 -10 7 2 0 1 3 2 0 1 -1 -2 -1 -1 0 -1 -1 -1 -1 -2 -1 -1 0 -1 -1
-5 -5 3 4 -2 -2 1 2 -0 -2 -5 -9 -3 4 2 2 2 -0 -1 7 3 1 1 -0 1 -1 1 -2 -3 -2 -2 -1 -1 0 1 -1 -0 -0 -0 0 0 0 -2
2 -0 4 -4 -1 -2 3 2 0 8 6 5 1 0 0 4 4 -0 6 6 2 6 3 0 2 3 -2 -2 -2 -1 -1 -1 0 0 -1 -1 -0 -0 -1 -0 -1 -1 -3
-2 5 3 5 4 2 14 6 1 1 2 6 2 -2 -1 1 3 1 3 5 -1 5 5 6 3 1 1 -0 -1 -4 -3 -1 -0 -1 1 2 -1 -1 -0 -1 -2 -2 -3
7 3 2 -4 3 2 6 12 9 4 7 4 -2 1 1 -2 4 -1 3 6 2 -0 5 1 -0 3 2 2 0 -1 -1 -2 -2 -1 -2 0 0 0 -0 -3 -3 -1 -0
Height
3143 3143 3144 3146 3148 3150 3150 3151 3153 3156 3159 3161 3163 3165 3167 3168 3169 3170 3171 3172 3172 3172 3172 3172 3172 3172 3172 3172 3172 3172 3172 3172 3171 3171 3170 3171 3170 3169 3170 3170 3169 3169 3169
3140 3141 3143 3144 3146 3149 3149 3150 3152 3154 3157 3160 3162 3164 3166 3167 3168 3169 3170 3171 3171 3171 3171 3172 3172 3171 3171 3171 3171 3171 3171 3170 3170 3169 3169 3169 3168 3168 3169 3169 3169 3169 3168
3138 3139 3141 3143 3145 3147 3148 3149 3151 3153 3155 3158 3161 3163 3164 3165 3167 3168 3169 3170 3170 3170 3170 3170 3170 3170 3170 3170 3171 3171 3170 3169 3169 3168 3168 3167 3167 3167 3167 3168 3168 3168 3168
3137 3136 3138 3139 3141 3144 3146 3147 3149 3152 3154 3156 3158 3161 3163 3164 3165 3166 3167 3168 3168 3169 3169 3169 3170 3170 3170 3170 3169 3171 3170 3169 3168 3167 3167 3166 3166 3165 3166 3166 3167 3168 3167
3136 3135 3134 3135 3136 3139 3141 3144 3146 3149 3152 3154 3156 3157 3159 3161 3162 3163 3165 3166 3167 3168 3168 3169 3169 3169 3169 3168 3168 3169 3170 3168 3167 3166 3166 3165 3165 3164 3164 3165 3166 3166 3166
3135 3134 3135 3135 3137 3138 3140 3141 3143 3145 3148 3151 3153 3155 3157 3158 3159 3160 3162 3163 3164 3166 3167 3167 3168 3168 3167 3166 3167 3167 3168 3167 3166 3165 3164 3164 3164 3163 3164 3164 3164 3164 3164
3134 3134 3134 3135 3136 3138 3139 3137 3141 3142 3146 3147 3150 3153 3154 3156 3157 3158 3160 3161 3162 3163 3164 3165 3166 3165 3166 3166 3165 3165 3165 3165 3165 3164 3163 3162 3162 3162 3162 3162 3162 3162 3162
3132 3132 3132 3133 3134 3135 3136 3136 3139 3139 3143 3145 3147 3149 3151 3153 3155 3157 3159 3160 3161 3162 3162 3162 3163 3164 3163 3164 3163 3164 3163 3163 3162 3161 3160 3160 3160 3160 3160 3160 3160 3160 3160
3129 3129 3129 3130 3131 3133 3134 3135 3136 3138 3140 3142 3144 3147 3149 3151 3153 3155 3157 3158 3158 3158 3158 3159 3160 3162 3161 3160 3163 3161 3160 3161 3160 3159 3159 3158 3158 3158 3158 3158 3157 3157 3157
3127 3126 3126 3127 3127 3128 3130 3131 3132 3134 3136 3137 3140 3142 3146 3149 3150 3152 3152 3153 3154 3155 3155 3156 3157 3156 3157 3160 3162 3159 3158 3158 3158 3157 3156 3156 3155 3155 3155 3155 3154 3154 3154
3125 3123 3123 3122 3123 3123 3123 3125 3126 3128 3130 3132 3136 3140 3142 3143 3144 3145 3147 3148 3150 3150 3151 3152 3153 3152 3154 3157 3157 3156 3156 3155 3155 3154 3154 3153 3153 3152 3152 3152 3151 3151 3150
3120 3120 3118 3117 3117 3118 3119 3120 3122 3124 3126 3128 3131 3134 3136 3137 3139 3141 3143 3144 3145 3145 3146 3147 3149 3149 3152 3153 3153 3152 3153 3153 3152 3151 3150 3150 3150 3149 3149 3148 3147 3146 3146
3114 3114 3115 3114 3113 3114 3114 3115 3117 3119 3122 3124 3126 3128 3130 3132 3133 3135 3136 3137 3139 3141 3142 3142 3146 3147 3149 3149 3149 3149 3150 3150 3149 3149 3148 3147 3146 3144 3144 3143 3143 3142 3142
3110 3109 3109 3110 3109 3110 3111 3112 3112 3114 3117 3120 3121 3122 3124 3126 3127 3127 3129 3131 3134 3136 3137 3138 3141 3143 3144 3145 3145 3146 3146 3146 3146 3145 3144 3144 3142 3140 3138 3137 3137 3136 3136
3102 3104 3104 3104 3105 3105 3106 3106 3108 3109 3111 3113 3116 3117 3118 3119 3120 3122 3123 3125 3129 3130 3131 3133 3135 3137 3139 3140 3141 3141 3142 3142 3142 3141 3140 3138 3137 3135 3133 3132 3130 3130 3130
3097 3099 3099 3099 3100 3100 3101 3102 3103 3104 3107 3108 3109 3111 3112 3112 3113 3116 3117 3119 3122 3124 3126 3128 3130 3131 3132 3135 3136 3137 3137 3137 3137 3136 3134 3133 3131 3130 3128 3128 3127 3126 3125
3093 3092 3094 3095 3096 3096 3097 3098 3099 3101 3102 3105 3105 3106 3106 3107 3107 3108 3110 3113 3116 3119 3121 3123 3125 3126 3128 3130 3131 3132 3132 3131 3131 3131 3130 3128 3127 3125 3124 3123 3122 3122 3121
3086 3086 3087 3088 3089 3091 3092 3093 3094 3096 3098 3100 3101 3102 3102 3102 3103 3104 3106 3109 3111 3114 3116 3117 3120 3121 3125 3125 3126 3127 3127 3127 3126 3125 3124 3123 3122 3121 3120 3119 3117 3117 3116
3080 3080 3080 3082 3083 3085 3085 3086 3087 3089 3091 3093 3095 3096 3097 3098 3099 3101 3103 3104 3106 3108 3111 3113 3114 3117 3118 3120 3121 3121 3121 3121 3121 3120 3119 3118 3118 3116 3115 3114 3113 3112 3111
3071 3073 3073 3073 3075 3076 3077 3079 3080 3081 3083 3085 3087 3089 3092 3093 3095 3097 3099 3100 3101 3103 3106 3109 3110 3111 3113 3115 3115 3116 3116 3116 3116 3115 3114 3113 3112 3111 3110 3109 3107 3107 3106
3063 3063 3064 3065 3067 3069 3071 3073 3073 3074 3076 3078 3080 3082 3085 3089 3091 3092 3093 3095 3097 3098 3100 3102 3105 3106 3107 3108 3110 3110 3111 3110 3109 3109 3108 3107 3107 3106 3105 3104 3103 3103 3101
3054 3054 3055 3057 3060 3062 3065 3067 3067 3069 3070 3072 3073 3075 3077 3081 3085 3087 3089 3090 3093 3094 3096 3098 3099 3101 3102 3103 3104 3105 3105 3105 3103 3103 3103 3103 3102 3101 3100 3100 3099 3098 3097
3044 3045 3046 3048 3051 3053 3056 3059 3061 3061 3062 3064 3067 3070 3072 3075 3078 3080 3083 3084 3089 3090 3091 3092 3093 3095 3097 3098 3099 3100 3098 3099 3098 3098 3098 3098 3097 3096 3097 3096 3096 3095 3094
3034 3035 3036 3037 3039 3041 3044 3048 3051 3054 3055 3057 3059 3063 3066 3068 3070 3074 3078 3078 3082 3085 3086 3087 3088 3090 3091 3092 3093 3093 3093 3094 3093 3094 3094 3093 3093 3093 3093 3093 3093 3092 3091
3026 3025 3026 3025 3027 3028 3033 3037 3040 3043 3047 3049 3050 3053 3057 3060 3063 3067 3071 3072 3076 3079 3080 3082 3083 3085 3085 3086 3086 3087 3088 3089 3089 3089 3089 3089 3088 3089 3089 3089 3089 3089 3088
3017 3016 3016 3017 3017 3018 3021 3027 3030 3034 3037 3037 3041 3045 3049 3053 3056 3061 3065 3068 3070 3073 3075 3077 3078 3079 3080 3080 3081 3081 3082 3083 3083 3084 3084 3085 3085 3085 3085 3086 3086 3086 3085